Theta_e
310 310 310 310 310 310 311 311 309 304 304 303 302 301 303 306 301 301 304 307 309 305 302 305 305 305 306 311 315 317 319 316 317 320 317 315 314 312 311 312 312 314 319 320 307
307 308 310 310 310 309 310 310 308 305 304 303 302 301 303 305 302 302 302 304 303 303 303 306 307 305 309 311 315 319 315 314 315 315 316 314 311 311 310 311 311 311 312 308 306
305 305 306 308 308 308 309 307 305 304 304 302 301 300 304 305 306 302 301 302 301 302 304 305 305 306 309 311 312 317 314 313 313 313 310 310 309 309 310 311 311 311 310 307 305
305 305 305 305 305 305 305 306 304 303 303 302 301 300 304 302 310 302 301 302 301 302 304 306 307 309 309 310 309 313 312 312 311 308 308 309 307 307 307 309 306 306 305 305 306
307 306 305 304 304 303 303 304 303 302 302 302 300 301 305 305 302 301 301 301 302 302 304 307 308 308 309 308 308 310 308 307 307 306 305 305 306 306 306 306 306 304 304 305 305
309 308 306 304 303 303 303 303 303 302 302 302 300 302 304 305 301 301 301 302 303 304 305 306 307 307 307 307 307 306 306 307 305 305 305 304 305 302 306 302 303 303 304 304 304
309 309 308 306 304 304 303 303 303 302 302 301 300 304 303 303 301 301 301 302 303 304 306 305 306 307 305 307 306 306 306 305 304 303 304 302 305 303 305 302 302 302 303 303 303
310 309 308 307 306 305 304 303 301 302 301 300 301 303 303 300 301 300 301 302 302 303 303 304 305 305 306 305 303 304 304 308 302 302 302 301 309 304 301 301 302 303 303 303 303
312 311 310 309 308 306 305 301 302 301 301 300 301 301 302 300 301 300 301 302 302 302 302 302 302 302 301 304 306 304 310 304 304 302 302 302 306 304 301 301 302 303 303 303 302
315 314 312 311 310 308 304 300 302 302 301 301 300 303 301 301 300 300 300 301 303 302 303 304 304 305 302 304 328 310 305 302 303 301 302 302 303 304 304 303 302 303 302 302 302
316 316 315 314 312 308 304 300 304 306 300 299 301 301 301 300 300 300 299 301 302 303 304 303 305 307 305 301 300 301 302 303 303 301 301 303 303 304 304 303 303 302 301 301 302
318 317 316 315 314 308 302 300 298 298 302 297 300 300 301 300 300 300 299 301 302 302 302 303 306 300 301 302 302 302 303 309 303 300 301 303 302 304 302 301 301 301 301 302 302
317 317 317 316 314 305 300 300 300 298 300 299 300 301 301 300 300 301 300 301 301 302 302 303 302 300 301 302 302 302 304 303 303 303 301 300 308 308 302 300 301 302 301 301 302
316 317 316 316 312 304 303 299 299 298 314 307 301 300 300 300 301 300 299 301 302 301 301 302 299 300 301 302 301 303 300 301 302 304 313 300 322 310 304 303 302 303 303 303 302
316 315 315 314 307 303 304 300 298 300 330 303 299 298 299 299 300 300 298 299 301 302 300 304 302 301 302 302 301 301 301 302 302 303 301 304 307 312 302 306 305 304 303 303 303
314 313 313 312 309 306 304 299 299 323 327 304 299 299 299 299 300 299 300 301 300 301 301 299 299 301 302 300 299 300 301 299 299 302 311 301 305 312 309 306 302 301 302 303 301
314 312 312 309 307 305 301 301 316 324 308 309 301 299 299 300 300 299 299 301 302 311 307 301 301 300 300 300 301 301 301 324 325 318 321 300 304 310 307 302 301 301 301 301 300
311 312 311 308 305 300 301 313 319 316 308 299 299 299 301 299 299 299 300 302 298 299 303 308 312 302 301 301 301 301 300 311 315 314 311 296 308 309 302 300 301 301 300 300 300
309 310 309 308 306 302 312 314 320 314 305 303 301 304 301 299 299 299 300 301 299 299 305 303 302 300 300 299 298 301 301 297 300 290 301 308 303 303 302 300 300 300 300 301 300
307 308 305 307 306 305 309 311 311 307 302 307 317 307 308 301 303 302 301 300 299 298 297 299 306 298 299 299 299 300 299 304 304 311 314 312 306 309 307 303 300 300 301 300 298
305 307 301 305 303 306 311 312 308 305 304 308 312 312 305 303 302 305 309 300 298 299 298 298 301 300 299 301 304 300 301 299 300 301 309 310 315 306 309 306 303 301 299 299 299
304 306 301 301 305 302 308 306 303 303 300 300 301 304 304 303 305 302 308 303 298 300 301 299 300 303 302 296 296 299 300 300 307 307 299 299 307 302 302 302 300 301 300 300 299
304 301 299 300 306 306 303 303 303 302 302 301 303 302 301 301 308 304 299 296 297 301 304 300 303 309 309 297 296 299 299 299 297 298 303 306 309 299 298 298 299 299 301 299 298
300 303 298 297 300 304 306 305 305 301 302 301 304 303 301 301 302 309 304 298 298 300 300 303 303 307 313 310 298 299 298 299 300 303 302 302 303 304 306 306 306 305 301 299 297
299 301 301 301 302 303 303 303 301 305 301 301 304 305 305 307 303 302 301 300 299 299 301 303 303 300 302 301 298 298 299 299 299 301 303 305 304 305 305 305 303 302 300 297 296
299 300 297 299 300 302 302 303 302 302 302 302 303 303 304 307 307 305 303 303 306 301 300 299 304 294 298 297 298 299 300 299 299 299 300 300 301 301 302 302 300 299 299 297 296
297 298 300 301 301 301 301 301 301 302 302 302 302 303 302 302 303 303 303 304 304 303 302 300 300 298 307 291 291 300 295 297 299 299 300 300 301 302 302 302 300 298 296 296 295
Wind_Speed
10 11 12 14 13 12 12 12 12 11 11 11 11 11 9 6 4 4 6 7 8 11 11 4 2 2 3 3 1 1 4 5 3 5 1 1 2 2 1 7 3 4 5 2 4
9 10 10 11 12 12 12 12 11 11 11 12 12 10 8 4 3 9 7 9 8 9 4 3 3 1 3 3 2 5 4 3 0 2 2 2 4 4 5 7 8 8 8 2 5
10 10 11 12 13 14 12 11 11 10 11 12 12 11 8 1 3 2 11 9 7 8 2 2 3 1 2 1 1 3 4 0 2 3 3 4 5 4 7 11 14 10 6 3 4
10 10 10 11 12 12 12 11 11 11 11 12 11 11 4 1 2 3 12 9 8 7 3 2 1 2 2 4 0 4 3 3 0 1 2 4 4 7 15 13 2 6 3 6 8
11 12 12 12 12 14 14 13 12 12 12 12 12 11 3 1 3 7 11 9 6 2 5 2 2 2 2 2 2 5 2 3 3 6 7 8 13 14 17 18 12 9 10 13 11
11 13 14 14 15 16 16 15 14 13 13 11 9 7 1 0 2 8 9 8 10 7 6 5 3 2 4 1 2 2 5 8 5 4 5 7 9 3 2 4 3 8 10 9 9
10 12 14 15 16 16 17 16 15 15 11 7 6 4 2 4 3 7 8 9 9 6 3 4 2 0 3 2 0 1 6 6 1 3 3 9 10 10 10 4 8 10 10 11 11
11 12 14 16 18 19 19 19 17 8 5 4 5 3 3 2 3 7 9 5 5 6 4 4 4 4 1 2 1 2 2 4 2 5 3 4 10 2 3 4 9 11 11 13 15
11 13 14 16 19 22 22 20 6 4 3 3 3 2 2 2 3 7 8 4 3 4 5 3 3 3 1 3 3 1 4 3 3 3 3 2 14 4 1 7 18 18 19 15 13
12 12 13 16 19 23 21 9 5 4 4 3 4 1 2 3 4 6 6 5 2 1 0 2 1 2 1 4 4 3 4 3 6 2 3 10 25 28 16 15 19 20 16 13 10
12 13 13 14 17 20 20 3 3 1 9 2 3 3 2 5 2 4 5 2 0 1 2 2 3 4 3 3 3 1 2 8 5 1 6 7 19 27 22 16 18 15 10 8 6
11 11 13 15 15 15 10 5 3 2 4 4 1 1 1 2 1 3 6 1 1 2 1 3 4 2 6 3 1 2 5 6 7 2 5 9 24 25 10 3 4 4 4 5 3
10 10 12 11 12 5 8 4 1 2 3 1 2 1 1 3 1 2 4 1 1 4 2 4 3 4 1 2 3 5 6 3 5 9 5 13 11 6 3 3 3 4 3 3 5
8 9 10 8 4 3 1 2 2 0 2 2 1 2 1 1 0 2 2 0 1 2 3 1 3 3 3 3 4 4 1 2 6 8 4 6 5 10 2 7 7 7 8 8 8
5 4 5 2 0 1 0 1 2 1 3 3 1 1 2 1 1 1 3 2 3 3 3 3 4 4 4 1 4 2 2 3 3 1 4 2 3 7 2 2 2 8 11 10 9
5 2 0 1 0 1 1 2 1 2 7 3 1 1 1 1 2 1 1 3 2 2 0 1 0 2 0 2 2 3 2 2 1 2 3 1 2 6 4 3 2 2 7 10 8
2 1 3 1 1 2 2 1 2 4 3 2 1 2 2 1 1 1 1 2 3 1 3 2 3 2 2 3 2 2 2 3 3 2 2 1 4 12 6 6 4 4 5 8 6
3 7 5 3 4 4 1 2 3 1 2 1 2 1 1 3 1 3 1 3 4 1 1 3 4 6 5 3 2 4 2 2 5 4 5 1 7 4 2 2 6 9 10 12 12
3 9 3 6 5 2 1 3 3 4 4 3 1 2 0 1 2 2 3 2 1 8 5 3 2 1 0 0 2 5 4 3 3 2 3 4 7 14 5 10 12 13 11 9 7
2 4 3 5 6 2 2 6 4 3 4 1 4 4 3 3 2 1 2 2 1 3 1 1 3 1 2 1 3 3 6 1 1 4 6 5 6 11 5 7 5 3 5 6 7
3 2 3 9 6 2 4 6 5 5 6 5 2 4 5 3 5 4 3 2 1 2 1 3 2 3 2 8 7 4 4 3 2 3 4 6 6 7 8 4 5 3 5 8 8
3 3 3 14 2 2 4 5 2 4 3 3 1 5 5 6 4 3 4 3 4 6 5 1 0 3 5 2 3 2 2 7 5 5 3 3 12 4 6 4 3 6 8 11 11
2 1 4 4 6 8 2 4 4 5 5 6 5 7 3 5 3 6 5 3 3 3 5 6 1 4 3 2 1 4 4 4 1 1 8 6 10 4 3 4 6 9 10 12 14
2 3 2 1 1 6 6 6 6 5 4 5 3 4 2 4 5 2 4 2 3 3 2 5 5 7 9 6 3 6 5 8 9 5 10 18 26 31 27 22 16 8 8 10 12
3 4 3 5 8 10 8 4 6 8 6 7 4 10 9 7 4 5 5 2 3 5 4 4 7 6 13 13 12 17 18 18 17 21 14 32 27 38 31 24 24 19 13 10 11
3 3 2 1 7 15 19 16 18 5 9 6 10 11 14 12 9 5 4 5 6 7 6 6 2 2 5 8 15 19 20 19 23 24 25 32 40 30 31 23 14 5 8 8 11
11 4 3 6 8 9 17 18 11 16 12 16 13 12 12 15 13 11 6 4 5 8 9 7 5 4 9 2 5 10 14 23 12 13 19 22 36 29 26 17 12 6 10 12 10
Wind_Direction
9 12 13 14 13 9 5 1 360 1 354 355 358 2 1 12 50 72 45 335 319 333 341 347 352 108 110 105 116 216 233 249 237 196 132 148 288 171 288 268 247 222 244 28 1
359 2 5 6 7 6 6 359 353 352 350 352 355 357 349 1 115 62 358 339 334 337 351 37 112 87 116 131 147 224 242 237 170 204 238 221 260 289 269 234 241 237 222 197 329
359 358 359 2 3 1 357 354 351 348 349 352 351 349 336 343 196 35 355 357 350 352 102 80 101 42 120 191 146 172 259 60 226 254 267 270 265 249 258 259 247 253 234 218 284
1 0 358 357 359 359 355 350 350 348 347 350 350 349 347 114 312 355 353 360 5 20 99 91 130 138 151 189 139 246 247 244 303 165 261 260 292 264 243 251 304 248 224 266 265
357 358 1 356 353 356 356 350 349 345 346 347 351 357 28 57 62 348 354 7 10 36 52 99 146 143 191 166 210 245 298 262 272 271 265 272 261 266 265 262 254 243 259 267 255
351 355 356 357 354 353 352 350 344 341 336 339 349 2 23 85 18 1 8 23 32 41 37 29 101 98 100 125 233 354 292 283 295 297 287 290 276 299 207 59 205 233 239 246 229
348 349 350 351 349 351 350 345 337 329 328 332 354 21 73 82 29 18 22 33 38 36 53 32 58 153 141 152 60 284 294 278 269 338 302 307 266 229 259 237 257 254 239 235 240
342 346 347 346 347 348 349 338 330 334 0 1 16 26 77 58 35 17 28 40 50 48 75 47 57 91 21 115 184 247 244 292 82 339 31 342 279 303 153 207 242 241 243 257 271
338 343 344 345 348 347 346 339 7 30 26 34 59 43 91 44 47 8 17 21 360 37 48 58 50 43 172 222 228 222 267 256 277 47 318 273 286 264 171 252 274 273 270 272 284
326 331 337 341 347 346 347 357 40 67 33 64 72 164 62 23 344 352 359 11 33 60 309 45 57 230 191 224 249 206 267 253 265 52 266 264 267 284 274 269 275 278 280 274 265
309 315 323 335 343 347 350 351 346 114 46 54 356 346 356 333 5 17 355 331 190 110 242 41 249 246 342 349 8 8 273 276 274 334 297 254 275 280 294 283 271 274 259 238 231
291 298 303 317 335 348 1 52 62 349 307 35 26 346 347 342 305 30 6 241 211 213 188 212 238 80 112 97 360 295 299 279 284 291 311 309 292 282 301 255 264 303 199 187 191
272 290 287 297 326 348 56 77 54 20 275 20 60 46 354 336 109 325 352 117 137 178 203 250 80 142 176 173 250 243 248 290 287 320 261 308 275 274 200 268 236 212 220 211 223
288 277 278 291 313 2 60 43 21 14 320 158 126 82 75 17 285 332 347 311 137 214 185 249 115 188 201 238 201 282 53 301 310 337 296 10 287 290 288 278 229 208 209 218 224
346 280 274 274 151 129 163 15 341 263 301 48 104 166 124 110 3 77 335 242 187 155 205 103 175 195 227 251 181 343 1 311 305 250 320 106 223 275 311 240 224 207 213 220 225
353 346 49 312 327 240 156 1 335 252 242 116 82 341 180 105 126 299 314 31 4 141 162 184 142 224 272 116 166 117 274 258 135 171 242 98 267 272 229 163 172 195 215 225 211
327 161 162 167 143 164 184 240 59 220 6 357 61 31 352 8 94 23 127 211 240 219 215 178 195 152 209 188 158 200 280 294 271 236 293 106 266 253 252 211 224 205 197 194 207
247 198 167 171 130 150 138 55 230 59 253 296 282 342 360 10 63 328 237 247 208 203 231 251 244 192 169 245 163 172 197 246 277 287 314 168 241 245 249 287 244 244 256 263 261
221 192 175 189 182 169 92 218 237 189 162 194 164 22 12 85 282 318 247 253 221 197 218 193 225 125 314 117 277 143 200 90 106 101 273 238 264 276 272 246 241 253 241 248 251
191 181 198 200 174 128 100 233 234 180 146 165 188 179 227 198 204 230 206 158 201 200 265 169 267 166 134 172 74 265 137 159 177 277 274 234 261 251 250 223 192 201 213 234 239
232 215 231 172 138 77 218 226 222 199 159 195 253 203 234 216 198 209 208 166 211 142 234 159 233 114 173 208 188 157 203 195 303 230 267 300 254 215 235 198 197 236 266 259 256
213 220 186 155 152 191 205 204 217 179 159 191 234 225 203 190 206 239 260 266 196 171 154 82 64 250 229 78 354 295 248 192 230 206 245 298 272 189 247 255 266 279 279 272 286
211 177 186 174 209 213 168 267 249 173 190 175 225 221 188 194 231 216 204 181 197 230 173 164 103 301 213 146 70 243 219 214 114 275 223 259 260 116 151 227 248 257 265 282 295
163 193 212 195 268 215 203 227 233 199 209 183 210 130 131 208 220 259 248 198 174 193 170 124 178 202 254 297 150 239 218 227 225 252 279 241 286 271 287 288 298 291 258 288 305
188 226 194 203 218 217 214 190 196 205 218 202 221 215 185 217 210 216 230 201 207 203 179 150 224 226 251 265 252 258 254 246 234 240 248 272 278 278 279 298 305 308 316 311 303
227 180 200 212 220 202 217 230 224 214 179 216 227 196 208 225 218 245 208 210 222 181 167 185 219 122 268 257 249 261 258 247 244 248 252 260 264 269 287 293 294 292 291 297 300
218 251 230 198 201 208 220 228 228 217 231 234 214 220 216 227 241 259 258 213 208 173 190 175 170 161 271 19 307 269 230 225 216 227 236 251 257 281 288 290 302 295 288 296 289